Location: Waltman Observatory
(32.5145°N, 90.4450°W)
Time: 04:52:53
(UTC-05:00)

Amateur Radio Satellites - All Passes

Search period start: 23 July 2014 04:22
Search period end: 24 July 2014 04:22
Location: Waltman Observatory, 32.5145°N, 90.4450°W

Satellite Date Start Highest point End Downlink Frequencies (MHz)
Time Altitude Azimuth
AO-Echo 23 Jul 04:33:44 04:36:24 14° 295° (WNW) 04:39:02 ?
Uosat F 23 Jul 04:44:26 04:49:05 37° 99° (E) 04:53:40 435.120 FM
TMSAT-1 23 Jul 05:20:25 05:24:11 20° 293° (WNW) 05:27:57 436.925 FM
AO-7 23 Jul 06:01:29 06:09:43 66° 290° (WNW) 06:17:53 29.400 - 29.500 MHz
JAS-1B 23 Jul 06:10:15 06:14:07 13° 308° (NW) 06:17:51 435.800 - 435.900 CW/SSB
JAS-2 23 Jul 06:20:32 06:24:56 21° 92° (E) 06:29:00 435.800 - 435.900 CW/SSB, 435.910 FM
Uosat F 23 Jul 06:23:58 06:27:33 20° 293° (WNW) 06:31:08 435.120 FM
STRAND 1 23 Jul 06:25:55 06:30:30 34° 71° (ENE) 06:35:06 ?
Hamsat 23 Jul 06:36:45 06:40:49 41° 99° (E) 06:44:53 145.90 MHz
KITSAT 1 23 Jul 06:36:59 06:44:06 35° 107° (ESE) 06:51:13 435.175 FM
PANSAT 23 Jul 07:16:54 07:19:52 21° 162° (SSE) 07:22:50 not established
MaSat-1 23 Jul 07:23:49 07:25:52 12° 53° (NE) 07:27:53 437.345 MHz
Oscar 10/S400 23 Jul 07:29:00 08:48:01 27° 258° (WSW) 11:49:14 145.825 - 145.975 CW/USB, Beacon 145.810 USB
AO-7 23 Jul 07:58:43 08:00:55 11° 308° (NW) 08:03:06 29.400 - 29.500 MHz
JAS-2 23 Jul 08:04:35 08:10:15 41° 290° (WNW) 08:15:22 435.800 - 435.900 CW/SSB, 435.910 FM
STRAND 1 23 Jul 08:05:41 08:09:40 23° 264° (W) 08:13:41 ?
Hamsat 23 Jul 08:14:20 08:16:23 13° 292° (WNW) 08:18:26 145.90 MHz
Lituanica SAT-1 23 Jul 08:16:37 08:18:43 39° 227° (SW) 08:20:48 437.275 MHz beacon
SO-67 23 Jul 08:19:22 08:22:49 65° 283° (WNW) 08:26:15 435.3500 MHz FM
KITSAT 1 23 Jul 08:31:37 08:39:15 44° 303° (WNW) 08:46:55 435.175 FM
PANSAT 23 Jul 08:56:03 08:59:42 41° 174° (S) 09:03:21 not established
MaSat-1 23 Jul 08:58:34 09:03:55 83° 249° (WSW) 09:08:55 437.345 MHz
Saudisat 1A 23 Jul 09:07:07 09:11:31 77° 117° (ESE) 09:15:57 436.775 MHz
ISS 23 Jul 09:14:57 09:18:17 60° 43° (NE) 09:21:35 145.800 FM
HO-68 23 Jul 09:52:07 09:59:09 59° 102° (ESE) 10:06:09 435.675 MHz FM
PCSat 23 Jul 10:29:00 10:31:12 12° 49° (NE) 10:33:24 145.825 MHz
PANSAT 23 Jul 10:36:00 10:39:39 41° 187° (S) 10:43:17 not established
Oscar 11 23 Jul 10:50:29 10:54:50 86° 283° (WNW) 10:59:10 145.825 FM, Beacon 2401.500 USB
Saudisat 1A 23 Jul 10:50:59 10:51:36 10° 313° (NW) 10:52:14 436.775 MHz
FUNcube-1 23 Jul 10:54:33 10:58:17 32° 98° (E) 11:02:02 145.950 - 145.970 MHz USB
Sapphire 23 Jul 11:35:54 11:41:04 44° 61° (ENE) 11:46:12 437.095 MHz 1200 baud AX-25 AFSK
HO-68 23 Jul 11:41:03 11:46:16 23° 297° (WNW) 11:51:30 435.675 MHz FM
PCSat 23 Jul 12:09:49 12:15:15 83° 246° (WSW) 12:20:39 145.825 MHz
PANSAT 23 Jul 12:16:32 12:19:28 21° 199° (SSW) 12:22:24 not established
FUNcube-1 23 Jul 12:31:56 12:34:25 16° 291° (WNW) 12:36:54 145.950 - 145.970 MHz USB
Oscar 19 23 Jul 12:57:32 13:01:20 22° 68° (ENE) 13:05:08 437.125 CW, 437.150 USB
JAS-1B 23 Jul 13:08:15 13:12:32 15° 53° (NE) 13:17:01 435.800 - 435.900 CW/SSB
RS-15 23 Jul 13:20:03 13:29:39 34° 106° (ESE) 13:38:59 29.354 - 29.394 USB, Beacon 29.352 USB
Sapphire 23 Jul 13:20:19 13:24:06 20° 255° (WSW) 13:27:52 437.095 MHz 1200 baud AX-25 AFSK
Oscar 16 23 Jul 13:23:38 13:28:26 42° 72° (ENE) 13:33:14 437.025 USB, Beacon 2401.1428
ITAMSAT 1 23 Jul 13:32:34 13:36:31 22° 68° (ENE) 13:40:27 435.822 SSB
AO-27 23 Jul 13:49:18 13:53:56 33° 71° (ENE) 13:58:35 436.795 MHz FM
Uribyol 2 23 Jul 13:52:41 13:57:26 37° 71° (ENE) 14:02:12 436.500 FM
AO-Echo 23 Jul 14:01:06 14:06:02 44° 72° (ENE) 14:11:04 ?
SO-50 23 Jul 14:09:27 14:13:53 80° 299° (WNW) 14:18:25 436.795 FM
Oscar 19 23 Jul 14:35:45 14:40:24 35° 262° (W) 14:45:05 437.125 CW, 437.150 USB
JAS-1B 23 Jul 14:53:00 15:01:06 73° 73° (ENE) 15:10:35 435.800 - 435.900 CW/SSB
TMSAT-1 23 Jul 14:55:55 15:00:50 41° 72° (ENE) 15:05:47 436.925 FM
Oscar 16 23 Jul 15:04:32 15:07:54 18° 266° (W) 15:11:16 437.025 USB, Beacon 2401.1428
UOSAT-12 23 Jul 15:05:18 15:08:51 23° 110° (ESE) 15:12:28 437.025 FM, 437.400 FM
AO-7 23 Jul 15:05:19 15:11:12 22° 58° (ENE) 15:17:05 29.400 - 29.500 MHz
ITAMSAT 1 23 Jul 15:10:57 15:15:44 36° 261° (W) 15:20:31 435.822 SSB
Gurwin Techsat 1B 23 Jul 15:15:50 15:21:09 88° 256° (WSW) 15:26:30 435.225 FM
AO-40 23 Jul 15:23:42 15:26:01 11° 203° (SSW) 15:27:55 Beacon 2401.320
AO-27 23 Jul 15:29:18 15:33:25 24° 264° (W) 15:37:34 436.795 MHz FM
RS-15 23 Jul 15:30:27 15:41:23 57° 303° (WNW) 15:52:07 29.354 - 29.394 USB, Beacon 29.352 USB
Uribyol 2 23 Jul 15:33:08 15:36:57 21° 265° (W) 15:40:48 436.500 FM
AO-Echo 23 Jul 15:41:25 15:44:56 18° 266° (W) 15:48:30 ?
Uosat F 23 Jul 15:53:23 15:57:50 32° 71° (ENE) 16:02:17 435.120 FM
OPAL 23 Jul 16:27:45 16:32:20 34° 100° (E) 16:36:56 ?
KITSAT 1 23 Jul 16:29:35 16:37:12 43° 57° (ENE) 16:44:44 435.175 FM
TMSAT-1 23 Jul 16:37:07 16:40:51 19° 265° (W) 16:44:36 436.925 FM
UOSAT-12 23 Jul 16:44:45 16:48:47 30° 305° (NW) 16:52:55 437.025 FM, 437.400 FM
JAS-1B 23 Jul 16:46:36 16:52:27 21° 271° (W) 16:58:57 435.800 - 435.900 CW/SSB
AO-7 23 Jul 16:54:48 17:03:07 74° 255° (WSW) 17:11:30 29.400 - 29.500 MHz
Hamsat 23 Jul 17:26:58 17:29:39 17° 70° (ENE) 17:32:21 145.90 MHz
Uosat F 23 Jul 17:32:39 17:36:35 23° 264° (W) 17:40:32 435.120 FM
Saudisat 1A 23 Jul 17:39:13 17:42:13 18° 52° (NE) 17:45:12 436.775 MHz
Oscar 10/S400 23 Jul 17:44:41 18:01:10 21° 149° (SSE) 18:14:56 145.825 - 145.975 CW/USB, Beacon 145.810 USB
RS-15 23 Jul 17:51:04 17:56:46 15° 330° (NNW) 18:02:29 29.354 - 29.394 USB, Beacon 29.352 USB
OPAL 23 Jul 18:07:04 18:10:58 23° 293° (WNW) 18:14:55 ?
JAS-2 23 Jul 18:08:20 18:15:54 54° 72° (ENE) 18:23:18 435.800 - 435.900 CW/SSB, 435.910 FM
KITSAT 1 23 Jul 18:25:13 18:32:22 36° 253° (WSW) 18:39:29 435.175 FM
STRAND 1 23 Jul 18:42:15 18:45:23 16° 94° (E) 18:48:30 ?
SO-67 23 Jul 18:48:59 18:51:26 18° 72° (ENE) 18:53:54 435.3500 MHz FM
Hamsat 23 Jul 19:01:42 19:05:22 30° 263° (W) 19:09:02 145.90 MHz
Saudisat 1A 23 Jul 19:17:50 19:21:56 38° 247° (WSW) 19:25:59 436.775 MHz
JAS-2 23 Jul 19:54:37 20:01:00 27° 265° (W) 20:07:21 435.800 - 435.900 CW/SSB, 435.910 FM
HO-68 23 Jul 20:16:34 20:22:25 28° 64° (ENE) 20:28:15 435.675 MHz FM
STRAND 1 23 Jul 20:19:53 20:24:44 45° 287° (WNW) 20:29:33 ?
SO-67 23 Jul 20:22:01 20:24:23 17° 265° (W) 20:26:45 435.3500 MHz FM
Oscar 11 23 Jul 21:41:06 21:45:08 40° 74° (ENE) 21:49:09 145.825 FM, Beacon 2401.500 USB
FUNcube-1 23 Jul 21:47:43 21:50:28 17° 69° (ENE) 21:53:11 145.950 - 145.970 MHz USB
HO-68 23 Jul 22:02:53 22:09:44 47° 259° (W) 22:16:36 435.675 MHz FM
RS-15 23 Jul 22:25:40 22:34:48 28° 45° (NE) 22:44:06 29.354 - 29.394 USB, Beacon 29.352 USB
SO-50 23 Jul 22:45:42 22:49:46 27° 55° (NE) 22:53:52 436.795 FM
MaSat-1 23 Jul 22:45:53 22:49:31 71° 293° (WNW) 22:53:51 437.345 MHz
Oscar 11 23 Jul 23:19:28 23:21:26 13° 267° (W) 23:23:25 145.825 FM, Beacon 2401.500 USB
FUNcube-1 23 Jul 23:22:32 23:26:34 34° 262° (W) 23:30:32 145.950 - 145.970 MHz USB
Lituanica SAT-1 24 Jul 00:15:44 00:17:31 23° 320° (NW) 00:19:20 437.275 MHz beacon
ISS 24 Jul 00:18:34 00:20:55 18° 127° (SE) 00:23:15 145.800 FM
SO-50 24 Jul 00:26:11 00:30:15 28° 249° (WSW) 00:34:21 436.795 FM
RS-15 24 Jul 00:37:06 00:48:12 78° 246° (WSW) 00:59:45 29.354 - 29.394 USB, Beacon 29.352 USB
PCSat 24 Jul 01:04:49 01:09:08 25° 107° (ESE) 01:13:27 145.825 MHz
Oscar 19 24 Jul 01:16:22 01:16:52 10° 92° (E) 01:17:21 437.125 CW, 437.150 USB
UOSAT-12 24 Jul 01:18:02 01:22:44 65° 60° (ENE) 01:27:20 437.025 FM, 437.400 FM
Oscar 16 24 Jul 01:40:34 01:44:31 22° 96° (E) 01:48:28 437.025 USB, Beacon 2401.1428
ITAMSAT 1 24 Jul 01:52:39 01:53:22 10° 92° (E) 01:54:04 435.822 SSB
ISS 24 Jul 01:54:26 01:57:27 31° 321° (NW) 02:00:29 145.800 FM
AO-27 24 Jul 02:07:57 02:11:16 17° 94° (E) 02:14:35 436.795 MHz FM
Uribyol 2 24 Jul 02:10:53 02:14:31 19° 95° (E) 02:18:09 436.500 FM
Sapphire 24 Jul 02:12:45 02:18:08 79° 296° (WNW) 02:23:34 437.095 MHz 1200 baud AX-25 AFSK
AO-Echo 24 Jul 02:14:14 02:17:56 20° 94° (E) 02:21:31 ?
JAS-1B 24 Jul 02:45:47 02:53:54 33° 93° (E) 03:00:59 435.800 - 435.900 CW/SSB
PCSat 24 Jul 02:47:23 02:52:18 35° 301° (WNW) 02:57:15 145.825 MHz
Oscar 19 24 Jul 02:51:27 02:56:35 70° 285° (WNW) 03:01:43 437.125 CW, 437.150 USB
RS-15 24 Jul 02:54:23 02:58:50 13° 261° (W) 03:03:22 29.354 - 29.394 USB, Beacon 29.352 USB
UOSAT-12 24 Jul 03:01:50 03:02:15 10° 254° (WSW) 03:02:41 437.025 FM, 437.400 FM
TMSAT-1 24 Jul 03:16:57 03:21:09 24° 96° (E) 03:25:19 436.925 FM
Oscar 16 24 Jul 03:19:15 03:23:52 35° 289° (WNW) 03:28:30 437.025 USB, Beacon 2401.1428
ITAMSAT 1 24 Jul 03:28:06 03:33:15 69° 285° (WNW) 03:38:22 435.822 SSB
Gurwin Techsat 1B 24 Jul 03:36:53 03:42:06 55° 101° (E) 03:47:17 435.225 FM
OPAL 24 Jul 03:38:33 03:43:02 36° 70° (ENE) 03:47:31 ?
AO-27 24 Jul 03:46:01 03:50:56 44° 288° (WNW) 03:55:48 436.795 MHz FM
Uribyol 2 24 Jul 03:49:18 03:54:04 39° 288° (WNW) 03:58:49 436.500 FM
AO-Echo 24 Jul 03:52:07 03:56:45 36° 289° (WNW) 04:01:14 ?
Uosat F 24 Jul 04:07:08 04:09:45 14° 94° (E) 04:12:20 435.120 FM
